Tracking 18850 objects as of 22-Nov-2017
HD Live streaming from Space Station
objects crossing your sky now

SHIYAN-7 (SY-7)

Track SHIYAN-7 (SY-7) now!
10-day predictions
SHIYAN-7 (SY-7) is classified as:


NORAD ID: 39208
Int'l Code: 2013-037A
Perigee: 667.5 km
Apogee: 680.6 km
Inclination: 98.0 °
Period: 98.1 minutes
Semi major axis: 7045 km
RCS: Unknown
Launch date: July 19, 2013
Source: People's Republic of China (PRC)
Launch site: Taiyaun Space Center, China (TSC)

SHIYAN 7 is equipped with a system for testing a manipulator arm to capture other space objects.
aabbcc
Your satellite tracking list
Your tracking list is empty




NASA's NSSDC Master Catalog

Two Line Element Set (TLE):
1 39208U 13037A   17325.94047072 +.00000044 +00000-0 +15989-4 0  9991
2 39208 097.9974 333.6081 0009281 019.9971 340.1621 14.68168213232700
Source of the keplerian elements: AFSPC